Weather History for KHYA - January, 2012

Change the Weather History Date:

Friday, January 6, 2012

  Actual Average Record
Temperature  
Mean Temperature 37 °F -  
Max Temperature 48 °F 36 °F - (-1)
Min Temperature 26 °F 21 °F - (-1)
Degree Days  
Heating Degree Days 28    
Moisture  
Dew Point 30 °F    
Average Humidity 76    
Maximum Humidity 93    
Minimum Humidity 51    
Precipitation  
Precipitation 0.01 in - - ()
Sea Level Pressure  
Sea Level Pressure 29.85 in    
Wind  
Wind Speed 6 mph (SSW)    
Max Wind Speed 14 mph    
Max Gust Speed 21 mph    
Visibility 9 miles    
Events Snow    
Averages and records for this station are not official NWS values.
T = Trace of Precipitation, MM = Missing Value Source: NWS Daily Summary

Daily Weather History Graph

Daily Weather History Graph

Search for Another Location

Airport or City:

Trip Planner

Search our weather history database for the weather conditions in past years. The results will help you decide how hot, cold, wet, or windy it might be!

Date:

Astronomy

Jan. 06, 2012 Rise Set
Actual Time 7:08 AM EST 4:25 PM EST
Civil Twilight 6:37 AM EST 4:56 PM EST
Nautical Twilight 6:02 AM EST 5:31 PM EST
Astronomical Twilight 5:28 AM EST 6:05 PM EST
Moon 2:13 PM EST 4:45 AM EST
Length of Visible Light 10h 19m
Length of Day
9h 17m
Waxing Gibbous, 93% of the Moon is Illuminated
Jan 6
Waxing Gibbous
Jan 9
Full
Jan 16
Last Quarter
Jan 23
New
Jan 30
First Quarter

Hourly Weather History & Observations

Time (EST) Temp. Windchill Dew Point Humidity Pressure Visibility Wind Dir Wind Speed Gust Speed Precip Events Conditions
12:56 AM 28.9 °F 21.1 °F 14.0 °F 54% 29.92 in 10.0 mi West 8.1 mph - N/A   Clear
2:56 AM 28.9 °F 22.8 °F 12.9 °F 51% 29.95 in 10.0 mi WNW 5.8 mph - N/A   Clear
3:56 AM 28.9 °F - 14.0 °F 54% 29.94 in 10.0 mi Calm Calm - N/A   Overcast
4:56 AM 28.4 °F 23.3 °F 15.8 °F 59% 29.95 in 2.5 mi WNW 4.6 mph - N/A Snow Light Snow
5:04 AM 26.6 °F - 17.6 °F 69% 29.95 in 1.5 mi Calm Calm - 0.00 in Snow Light Snow
5:43 AM 26.6 °F - 24.8 °F 93% 29.96 in 3.0 mi Calm Calm - 0.00 in Snow Light Snow
5:52 AM 26.6 °F - 24.8 °F 93% 29.96 in 5.0 mi Calm Calm - 0.00 in Snow Light Snow
5:56 AM 26.1 °F 20.5 °F 23.0 °F 88% 29.96 in 5.0 mi SW 4.6 mph - 0.00 in Snow Light Snow
6:56 AM 27.0 °F 23.0 °F 24.1 °F 89% 29.95 in 10.0 mi SSE 3.5 mph - 0.00 in   Overcast
7:56 AM 28.4 °F - 26.6 °F 93% 29.93 in 10.0 mi Calm Calm - N/A   Overcast
8:56 AM 32.0 °F 25.6 °F 28.0 °F 85% 29.94 in 10.0 mi SSE 6.9 mph - 0.01 in   Overcast
9:56 AM 36.0 °F 29.6 °F 28.0 °F 73% 29.93 in 10.0 mi SSE 8.1 mph - N/A   Overcast
10:56 AM 37.9 °F 30.0 °F 28.9 °F 70% 29.89 in 10.0 mi SSE 12.7 mph 20.7 mph N/A   Partly Cloudy
11:56 AM 41.0 °F 35.2 °F 32.0 °F 70% 29.84 in 10.0 mi SE 9.2 mph 20.7 mph N/A   Partly Cloudy
12:56 PM 46.9 °F - 37.0 °F 68% 29.79 in 10.0 mi South 11.5 mph 18.4 mph N/A   Clear
1:56 PM 46.0 °F 41.9 °F 39.0 °F 76% 29.77 in 10.0 mi South 8.1 mph - N/A   Clear
2:56 PM 48.0 °F - 37.9 °F 68% 29.75 in 10.0 mi SW 12.7 mph - N/A   Clear
3:56 PM 46.4 °F 40.7 °F 37.4 °F 71% 29.74 in 10.0 mi SW 12.7 mph - N/A   Clear
4:56 PM 46.0 °F 39.9 °F 37.9 °F 73% 29.75 in 10.0 mi SW 13.8 mph - N/A   Clear
5:56 PM 46.0 °F 40.6 °F 39.0 °F 76% 29.75 in 10.0 mi WSW 11.5 mph - N/A   Clear
6:56 PM 45.0 °F 38.9 °F 37.9 °F 76% 29.75 in 10.0 mi SW 12.7 mph - N/A   Clear
7:56 PM 44.1 °F 40.1 °F 37.9 °F 79% 29.76 in 10.0 mi SW 6.9 mph - N/A   Clear
8:56 PM 42.8 °F 38.6 °F 37.4 °F 81% 29.77 in 10.0 mi WSW 6.9 mph - N/A   Clear
9:56 PM 45.0 °F 42.6 °F 39.9 °F 82% 29.75 in 10.0 mi West 4.6 mph - N/A   Clear
10:56 PM 39.9 °F - 36.0 °F 86% 29.75 in 10.0 mi Calm Calm - N/A   Clear
11:56 PM 37.9 °F 35.5 °F 36.0 °F 93% 29.74 in 10.0 mi SSE 3.5 mph - N/A   Clear